[[{"header":{"parameterUnit":"m.s-1","parameterCategory":1,"la1":30.2991,"la2":30.254,"lo1":-89.0895,"lo2":-89.0444,"dy":0.0017,"dx":0.0017,"nx":28,"ny":28,"refTime":"2023-10-29T03:00:00:Z","depth":0,"parameterNumber":2,"parameterNumberName":"U-component_of_WINDS"},"data":[0,0,0,0,0,0,0,0,0,0,0,0,0,0,0,0,0,0,0,0,0,0,0,0,0,0,0,0,0,0,0,0,0,0,0,0,0,0,0,0,0,0,0,0,0,0,0,0,0,0,0,0,0,0,0,0,0,0,-3.0599,-3.0599,0,-3.0603,-3.0603,-3.0603,-3.0547,-3.0546,-3.0544,-3.0543,-3.0547,-3.0549,-3.055,0,0,0,0,0,0,0,0,0,0,0,0,0,-3.0543,-3.0545,-3.0599,-3.0599,-3.0599,-3.0603,-3.0603,-3.0603,-3.0548,-3.0546,-3.0544,-3.0542,-3.0547,-3.0549,-3.055,0,0,0,0,0,0,0,0,0,0,0,0,0,-3.0559,-3.0545,-3.0599,-3.0572,-3.0569,-3.0603,-3.0603,-3.0603,-3.0548,-3.0546,-3.0544,-3.0541,-3.0546,-3.0548,-3.0551,-3.061,0,0,-3.0558,-3.0559,0,0,0,0,0,0,0,0,-3.0559,-3.0562,-3.0576,-3.0574,-3.0571,-3.0572,-3.0585,-3.0606,-3.0549,-3.0556,-3.0543,-3.054,-3.0557,-3.0559,-3.0564,-3.0611,-3.0611,-3.0558,-3.0559,-3.056,-3.0561,0,0,0,0,0,0,0,-3.0558,-3.0561,-3.06,-3.0576,-3.0573,-3.056,-3.0559,-3.0589,-3.057,-3.0555,-3.0551,-3.0553,-3.0556,-3.0562,-3.0564,-3.0611,-3.0558,-3.056,-3.0561,-3.0562,-3.0707,-3.0709,0,0,0,0,0,0,-3.056,-3.056,-3.06,-3.06,-3.0559,-3.0563,-3.0562,-3.0574,-3.0569,-3.0566,-3.0555,-3.055,-3.056,-3.0562,-3.0564,-3.0633,-3.056,-3.0562,-3.0564,-3.0704,-3.0707,-3.071,0,0,0,0,0,0,-3.0559,-3.0564,-3.06,-3.0579,-3.0583,-3.0566,-3.058,-3.0576,-3.0582,-3.0568,-3.0565,-3.0565,-3.0558,-3.0561,-3.0599,-3.0633,-3.0563,-3.0565,-3.0701,-3.0705,-3.0709,-3.0772,0,0,0,0,0,0,-3.0558,-3.0564,-3.0586,-3.058,-3.0584,-3.0635,-3.0582,-3.0577,-3.0586,-3.058,-3.0577,-3.0574,-3.0556,-3.0596,-3.0602,-3.0634,-3.0567,-3.0698,-3.0703,-3.0708,-3.0767,-3.0778,-3.0787,0,0,0,0,0,-3.0556,-3.0604,-3.0588,-3.0593,-3.0612,-3.0637,-3.0639,-3.0618,-3.0589,-3.0611,-3.0603,-3.0574,-3.0629,-3.0601,-3.0606,-3.064,-3.0696,-3.0702,-3.0707,-3.0763,-3.0776,-3.0786,0,0,0,0,0,0,-3.0613,-3.0602,-3.0584,-3.0632,-3.0636,-3.0628,-3.0654,-3.0632,-3.0644,-3.0638,-3.0611,-3.0611,-3.0654,-3.0651,-3.062,-3.0698,-3.0657,-3.0664,-3.0698,-3.071,-3.072,-3.0718,-3.0569,0,0,0,0,0,-3.0631,-3.0653,-3.0643,-3.0685,-3.0688,-3.0672,-3.0682,-3.0665,-3.0668,-3.0669,-3.0664,-3.0668,-3.0686,-3.0698,-3.0714,-3.0768,-3.0766,-3.0794,-3.0804,-3.0812,-3.0817,-3.0846,-3.0858,-3.0728,-3.0728,-3.0728,0,0,-3.0669,-3.0666,-3.0681,-3.0697,-3.0698,-3.0721,-3.0673,-3.0699,-3.0716,-3.0673,-3.0709,-3.0706,-3.0709,-3.0755,-3.0775,-3.0754,-3.0853,-3.0819,-3.0826,-3.0827,-3.0853,-3.0865,-3.0876,-3.0732,-3.0731,-3.0731,0,0,-3.0748,-3.0749,-3.0784,-3.0787,-3.079,-3.0779,-3.0788,-3.0784,-3.0779,-3.0815,-3.0784,-3.0804,-3.0836,-3.0839,-3.0845,-3.0929,-3.0903,-3.0935,-3.0985,-3.1013,-3.1023,-3.1032,-3.1061,-3.1072,-3.0941,-3.0941,-3.0942,0,-3.0794,-3.0827,-3.0805,-3.0834,-3.0842,-3.0806,-3.0842,-3.0845,-3.0853,-3.086,-3.0837,-3.0876,-3.0876,-3.0922,-3.0943,-3.095,-3.0959,-3.0934,-3.1024,-3.1032,-3.104,-3.1068,-3.1079,-3.0945,-3.0945,-3.0944,-3.0944,0,-3.0884,-3.0907,-3.0936,-3.0945,-3.0956,-3.0989,-3.0972,-3.0986,-3.097,-3.0961,-3.0999,-3.0997,-3.1012,-3.1023,-3.1007,-3.1068,-3.1054,-3.1029,-3.0986,-3.1057,-3.1082,-3.1092,-3.0951,-3.0949,-3.0948,-3.0947,0,0,-3.0996,-3.0994,-3.1005,-3.1009,-3.1011,-3.1028,-3.106,-3.1075,-3.1088,-3.1096,-3.1121,-3.115,-3.1126,-3.1133,-3.1117,-3.1142,-3.1208,-3.1112,-3.1112,-3.1129,-3.1274,-3.1292,-3.1305,-3.1192,-3.1194,-3.1195,-3.1273,0,-3.1072,-3.1125,-3.1107,-3.116,-3.1182,-3.115,-3.1177,-3.1181,-3.1175,-3.1193,-3.1186,-3.1207,-3.1174,-3.1178,-3.1201,-3.1195,-3.1236,-3.1189,-3.1214,-3.1215,-3.1212,-3.1318,-3.1337,-3.141,-3.1283,-3.1285,-3.1286,0,-3.1167,-3.1179,-3.1235,-3.1234,-3.1243,-3.1267,-3.128,-3.1298,-3.1303,-3.1297,-3.1306,-3.1285,-3.1316,-3.1277,-3.1319,-3.1288,-3.1297,-3.1296,-3.1299,-3.1298,-3.1253,-3.1319,-3.1433,-3.1444,-3.1302,-3.13,-3.1299,0,-3.1242,-3.1273,-3.131,-3.1315,-3.1315,-3.1333,-3.1334,-3.1336,-3.1347,-3.1359,-3.1366,-3.1381,-3.1389,-3.1402,-3.1387,-3.136,-3.1431,-3.139,-3.1426,-3.1427,-3.1441,-3.144,-3.1557,-3.1451,-3.1451,-3.1451,-3.145,0,-3.1328,-3.1363,-3.1343,-3.1366,-3.1405,-3.1385,-3.1424,-3.1421,-3.1425,-3.1446,-3.142,-3.1441,-3.1421,-3.144,-3.1429,-3.1465,-3.147,-3.1465,-3.1461,-3.1466,-3.1467,-3.1471,-3.1464,-3.1454,-3.1453,-3.1452,-3.1452,0,-3.1416,-3.1405,-3.1443,-3.1441,-3.1442,-3.147,-3.1468,-3.1489,-3.1483,-3.1511,-3.1516,-3.1505,-3.1527,-3.1514,-3.1536,-3.1528,-3.1576,-3.1566,-3.1574,-3.157,-3.1606,-3.1603,-3.1728,-3.1744,-3.163,-3.1631,-3.1632,0,-3.1471,-3.1497,-3.1498,-3.1511,-3.1514,-3.1535,-3.1546,-3.1529,-3.1541,-3.155,-3.157,-3.159,-3.1604,-3.1641,-3.1635,-3.1652,-3.1641,-3.1685,-3.1644,-3.1648,-3.164,-3.1638,-3.164,-3.1692,-3.1693,-3.1694,-3.1695,0,-3.1568,-3.1561,-3.1578,-3.1594,-3.1608,-3.162,-3.1629,-3.1641,-3.1624,-3.164,-3.1662,-3.1673,-3.1696,-3.1716,-3.1731,-3.1732,-3.1711,-3.1709,-3.1718,-3.1722,-3.1725,-3.1722,-3.1594,-3.1705,-3.1704,-3.1703,-3.1703,-3.1702,-3.164,-3.1662,-3.1666,-3.1686,-3.1692,-3.1702,-3.1721,-3.1718,-3.1736,-3.1753,-3.1742,-3.1769,-3.1774,-3.1792,-3.1797,-3.1817,-3.1799,-3.1813,-3.1816,-3.1819,-3.1823,-3.1724,-3.182,-3.182,-3.1819,-3.1819,-3.1819,0,-3.1734,-3.1736,-3.1755,-3.1769,-3.1785,-3.1765,-3.1775,-3.179,-3.1813,-3.182,-3.1836,-3.1862,-3.1881,-3.1878,-3.1896,-3.1913,-3.1904,-3.1918,-3.1916,-3.1916,-3.1838,-3.1828,-3.1926,-3.1925,-3.1925,-3.1925,-3.1925,-3.1925,-3.1785,-3.1821,-3.1816,-3.1855,-3.1856,-3.1882,-3.1889,-3.1898,-3.1904,-3.1934,-3.195,-3.1948,-3.1952,-3.197,-3.1987,-3.1986,-3.1993,-3.2011,-3.2006,-3.1932,-3.1922,-3.1912,-3.1902,-3.2013,-3.2013,-3.2082,-3.2082,-3.2083]},{"header":{"parameterUnit":"m.s-1","parameterCategory":1,"la1":30.2991,"la2":30.254,"lo1":-89.0895,"lo2":-89.0444,"dy":0.0017,"dx":0.0017,"nx":28,"ny":28,"refTime":"2023-10-29T03:00:00:Z","depth":0,"parameterNumber":3,"parameterNumberName":"V-component_of_WINDS"},"data":[0,0,0,0,0,0,0,0,0,0,0,0,0,0,0,0,0,0,0,0,0,0,0,0,0,0,0,0,0,0,0,0,0,0,0,0,0,0,0,0,0,0,0,0,0,0,0,0,0,0,0,0,0,0,0,0,0,0,2.1958,2.1958,0,2.1975,2.1975,2.1975,2.1945,2.1944,2.1943,2.1942,2.1956,2.1958,2.1959,0,0,0,0,0,0,0,0,0,0,0,0,0,2.1897,2.1898,2.1957,2.1958,2.1958,2.1975,2.1975,2.1975,2.1946,2.1944,2.1943,2.1942,2.1956,2.1958,2.1959,0,0,0,0,0,0,0,0,0,0,0,0,0,2.192,2.1899,2.1957,2.1945,2.1944,2.1975,2.1975,2.1975,2.1946,2.1944,2.1943,2.1941,2.1955,2.1957,2.1959,2.2001,0,0,2.1965,2.1966,0,0,0,0,0,0,0,0,2.1918,2.1922,2.1947,2.1946,2.1945,2.1957,2.1959,2.1984,2.1946,2.1945,2.1942,2.1941,2.1957,2.1959,2.1965,2.2002,2.2002,2.1965,2.1967,2.1967,2.1968,0,0,0,0,0,0,0,2.1917,2.1921,2.1964,2.1947,2.1946,2.1938,2.194,2.1963,2.1959,2.1945,2.1943,2.1946,2.1957,2.1964,2.1966,2.2003,2.1965,2.1967,2.1968,2.1969,2.2076,2.2078,0,0,0,0,0,0,2.1917,2.192,2.1964,2.1965,2.1928,2.1941,2.1943,2.1954,2.1959,2.1958,2.1947,2.1944,2.1961,2.1963,2.1966,2.2016,2.1967,2.1969,2.197,2.2075,2.2077,2.2079,0,0,0,0,0,0,2.1916,2.1921,2.1963,2.1942,2.1947,2.1943,2.1957,2.1955,2.1962,2.196,2.1959,2.1955,2.196,2.1963,2.1993,2.2016,2.197,2.1972,2.2073,2.2075,2.2078,2.2116,0,0,0,0,0,0,2.1915,2.1921,2.1937,2.1943,2.1948,2.199,2.1958,2.1957,2.1966,2.1963,2.1968,2.1967,2.1959,2.1991,2.1995,2.2018,2.1973,2.2071,2.2074,2.2077,2.2112,2.2119,2.2125,0,0,0,0,0,2.1912,2.1946,2.1938,2.1943,2.1968,2.1992,2.1995,2.1986,2.1968,2.1984,2.1984,2.1967,2.2014,2.1994,2.1999,2.2022,2.2069,2.2073,2.2077,2.211,2.2118,2.2125,0,0,0,0,0,0,2.194,2.1946,2.1937,2.1974,2.1983,2.1987,2.2006,2.1995,2.2008,2.2004,2.1992,2.1993,2.2026,2.2027,2.2006,2.2064,2.2038,2.2043,2.2062,2.207,2.2076,2.2074,2.1975,0,0,0,0,0,2.1951,2.1971,2.1975,2.2006,2.2012,2.2009,2.2019,2.2012,2.202,2.2023,2.2024,2.2032,2.2049,2.206,2.2075,2.2114,2.2114,2.2133,2.2139,2.2144,2.2148,2.217,2.2178,2.2091,2.2091,2.2091,0,0,2.1972,2.1978,2.1991,2.2012,2.2018,2.2039,2.2012,2.2034,2.2049,2.2026,2.2055,2.2057,2.2065,2.21,2.2116,2.2102,2.2173,2.2149,2.2153,2.2154,2.2175,2.2183,2.219,2.2094,2.2093,2.2093,0,0,2.2022,2.2028,2.2056,2.2064,2.2075,2.2074,2.2081,2.2088,2.2088,2.2118,2.2102,2.212,2.2148,2.2155,2.2162,2.222,2.2205,2.2225,2.2257,2.2279,2.2285,2.2291,2.2311,2.2319,2.2229,2.2229,2.2229,0,2.2046,2.2077,2.2071,2.2096,2.2106,2.209,2.2118,2.2126,2.214,2.2147,2.2133,2.2171,2.2175,2.2212,2.2226,2.2233,2.224,2.2223,2.2285,2.2291,2.2297,2.2316,2.2323,2.2232,2.2231,2.2231,2.2231,0,2.2107,2.213,2.2151,2.2168,2.2181,2.2207,2.2205,2.2219,2.2212,2.2212,2.2244,2.2249,2.2266,2.2274,2.2267,2.2311,2.2303,2.2288,2.226,2.2307,2.2325,2.2332,2.2235,2.2234,2.2233,2.2233,0,0,2.2169,2.2187,2.2195,2.2204,2.2217,2.2234,2.226,2.2279,2.2291,2.2303,2.2324,2.2351,2.2338,2.2346,2.234,2.2359,2.2405,2.2341,2.2342,2.2352,2.2454,2.2464,2.2473,2.2397,2.2398,2.2399,2.2453,0,2.2218,2.2265,2.2263,2.2306,2.2327,2.2315,2.2338,2.2348,2.235,2.2368,2.237,2.2389,2.237,2.2375,2.2394,2.2395,2.2425,2.2392,2.2415,2.2416,2.2411,2.2482,2.2492,2.2543,2.246,2.2461,2.2462,0,2.228,2.2298,2.2344,2.2357,2.2366,2.2387,2.2405,2.2422,2.2435,2.2435,2.2447,2.2439,2.2465,2.244,2.2477,2.2454,2.2464,2.2467,2.2469,2.2469,2.244,2.2482,2.2559,2.2566,2.2473,2.2472,2.2471,0,2.2321,2.2356,2.2388,2.2396,2.2413,2.2428,2.2435,2.2446,2.2459,2.2475,2.2482,2.2501,2.251,2.2524,2.2521,2.2503,2.2559,2.2533,2.2558,2.2559,2.2568,2.2567,2.2646,2.2578,2.2578,2.2578,2.2577,0,2.2374,2.2403,2.2407,2.2427,2.2459,2.2457,2.2489,2.2495,2.2506,2.2526,2.2516,2.2535,2.2531,2.255,2.2548,2.2579,2.2584,2.2584,2.2582,2.2584,2.2583,2.2588,2.2584,2.258,2.2579,2.2579,2.2578,0,2.2423,2.2427,2.2462,2.2477,2.2481,2.2504,2.2516,2.2535,2.2538,2.2564,2.257,2.2574,2.2596,2.2596,2.2621,2.2619,2.2657,2.2652,2.2653,2.2651,2.2676,2.2674,2.2759,2.277,2.2697,2.2697,2.2698,0,2.2455,2.2478,2.2496,2.2511,2.252,2.2542,2.2556,2.2556,2.257,2.2589,2.2605,2.2628,2.2645,2.2681,2.2685,2.2705,2.27,2.2729,2.2702,2.2703,2.2699,2.2697,2.2699,2.2733,2.2733,2.2734,2.2735,0,2.2513,2.2515,2.2536,2.2559,2.2577,2.2594,2.261,2.2622,2.2624,2.2641,2.2665,2.2679,2.2706,2.2728,2.2748,2.2754,2.2744,2.2744,2.275,2.275,2.275,2.275,2.2665,2.2741,2.274,2.274,2.2739,2.2739,2.2554,2.2574,2.2591,2.2616,2.2629,2.2645,2.2664,2.2672,2.2693,2.2716,2.2715,2.2742,2.2756,2.2782,2.279,2.2811,2.28,2.281,2.2812,2.2814,2.2817,2.2749,2.2814,2.2814,2.2814,2.2814,2.2814,0,2.261,2.2622,2.2645,2.267,2.2689,2.2683,2.2701,2.2717,2.2742,2.2757,2.2776,2.2805,2.2827,2.2835,2.2856,2.2871,2.2868,2.2877,2.2875,2.2876,2.2825,2.2817,2.288,2.288,2.288,2.288,2.288,2.288,2.2642,2.2676,2.2681,2.2722,2.2733,2.2762,2.2773,2.2788,2.28,2.2834,2.2853,2.286,2.2872,2.2895,2.2915,2.2917,2.2924,2.2935,2.2935,2.2886,2.288,2.2873,2.2865,2.2937,2.2937,2.2984,2.2985,2.2985]}]]